This is the latest recevied weather packets stored in our database for station/object OE6ACM-10. If no packets are shown the sender has not sent any weather packets the latest 10 day(s).
| Time | Temp. | Humidity | Pressure | Rain* | Wind** | Luminosity | Snow |
|---|---|---|---|---|---|---|---|
| 1787994419 | 24.44° C | 100% | 929 hPa | - | - | - | - |
| 1787993756 | 23.89° C | 100% | 928.9 hPa | - | - | - | - |
| 1787993456 | 23.33° C | 100% | 929 hPa | - | - | - | - |
| 1787993157 | 23.33° C | 100% | 928.9 hPa | - | - | - | - |
| 1787992911 | 23.33° C | 100% | 928.8 hPa | - | - | - | - |
| 1787992611 | 23.33° C | 100% | 928.8 hPa | - | - | - | - |
| 1787992311 | 22.78° C | 100% | 928.8 hPa | - | - | - | - |
| 1787992011 | 22.78° C | 100% | 928.7 hPa | - | - | - | - |
| 1787991711 | 22.78° C | 100% | 928.7 hPa | - | - | - | - |
| 1787991411 | 22.78° C | 100% | 928.9 hPa | - | - | - | - |
| 1787991111 | 22.22° C | 100% | 928.7 hPa | - | - | - | - |
| 1787990811 | 22.22° C | 100% | 928.6 hPa | - | - | - | - |
| 1787990511 | 21.67° C | 100% | 928.7 hPa | - | - | - | - |
| 1787990211 | 21.67° C | 100% | 928.7 hPa | - | - | - | - |
| 1787989911 | 22.22° C | 100% | 928.6 hPa | - | - | - | - |
| 1787989611 | 21.67° C | 100% | 928.5 hPa | - | - | - | - |
| 1787989311 | 22.22° C | 100% | 928.5 hPa | - | - | - | - |
| 1787989011 | 21.67° C | 100% | 928.5 hPa | - | - | - | - |
| 1787988711 | 21.67° C | 100% | 928.6 hPa | - | - | - | - |
| 1787988411 | 21.11° C | 100% | 928.6 hPa | - | - | - | - |
| 1787988111 | 21.67° C | 100% | 928.6 hPa | - | - | - | - |
| 1787987811 | 21.67° C | 100% | 928.5 hPa | - | - | - | - |
| 1787987511 | 21.11° C | 100% | 928.6 hPa | - | - | - | - |
| 1787987211 | 21.11° C | 100% | 928.4 hPa | - | - | - | - |
| 1787986911 | 21.11° C | 100% | 928.2 hPa | - | - | - | - |
* Rain since midnight (hover to see other rain measurements)
** Current wind speed in m/s (hover to see current wind gust speed)